Regional Weather Roundup
Issued by NWS

Home | Current Version | Previous Version | Graphics & Text | Print | Product List | Glossary On
Versions: 1 2 3 4 5 6 7 8 9 10 11 12 13 14 15 16 17 18 19 20 21 22 23 24 25 26 27 28 29 30 31 32 33 34 35 36 37 38 39 40 41 42 43 44 45 46 47 48 49 50
927
ASUS43 KDMX 222001
RWRIA

WEATHER ROUNDUP FOR IOWA
NATIONAL WEATHER SERVICE DES MOINES IA
300 PM CDT MON MAY 22 2017

NOTE: "FAIR" INDICATES FEW OR NO CLOUDS BELOW 12,000 FEET WITH NO
SIGNIFICANT WEATHER AND/OR OBSTRUCTIONS TO VISIBILITY.

* - THESE STATIONS ARE NOT NWS STATIONS...THUS NOT UNDER NWS
QUALITY CONTROL.  THEY ALSO DO NOT REPORT WEATHER SUCH
AS PRECIPITATION OR FOG.

IAZ001>003-012>014-020>022-031>034-043>046-222100-
   NORTHWEST IOWA

CITY           SKY/WX    TMP DP  RH WIND       PRES   REMARKS
CARROLL *      MOSUNNY   72  48  43 W14       29.86F
CHEROKEE *     PTSUNNY   68  46  45 NW10      29.84F
DENISON *      MOSUNNY   70  48  46 W12       29.88F
LE MARS *      PTSUNNY   68  50  52 NW12G17   29.86S
ORANGE CITY *  MOSUNNY   66  52  59 W15G21    29.85S
SHELDON *      PTSUNNY   68  48  49 W10         N/A
SIOUX CITY     PTSUNNY   69  49  48 NW10      29.85F
SPENCER        PTSUNNY   70  48  45 NW6       29.83F
STORM LAKE *     N/A     68  46  45 W9G16     29.85F
$$

IAZ055>058-069>071-079>083-090>094-222100-
   SOUTHWEST IOWA

CITY           SKY/WX    TMP DP  RH WIND       PRES   REMARKS
ATLANTIC *     CLOUDY    68  54  60 SW16G26   29.89S
AUDUBON *      CLOUDY    72  48  43 SW13      29.89F
CLARINDA *     CLOUDY    66  55  68 SW16G23   29.95F
COUNCIL BLFS * CLOUDY    70  55  60 SW14G22   29.88F
CRESTON *      CLOUDY    64  55  72 SW17G24   29.93F
HARLAN  *      PTSUNNY   72  48  43 SW15      29.91F
LAMONI         CLOUDY    62  57  83 SW16      29.94F
RED OAK *      CLOUDY    70  54  56 SW15G21   29.91F
SHENANDOAH *   MOSUNNY   70  55  60 SW18G24   29.93F
$$

IAZ047>049-059>061-072>074-084-222100-
   CENTRAL IOWA

CITY           SKY/WX    TMP DP  RH WIND       PRES   REMARKS
AMES           CLOUDY    70  53  54 SW18      29.85F
ANKENY *       CLOUDY    70  54  56 SW15G22   29.89S
BOONE *        CLOUDY    72  48  43 SW18      29.85F
DES MOINES     CLOUDY    70  53  54 SW20      29.87F
GRINNELL*      MOSUNNY   70  52  53 SW16G22   29.89F
MARSHALLTOWN   PTSUNNY   69  54  58 SW17G24   29.85F
NEWTON *       PTSUNNY   70  54  56 SW16G25   29.87F
PELLA *        CLOUDY    67  56  68 SW16G26   29.91S
PERRY *          N/A     72  47  40 W18G25    29.87S
$$

IAZ004>006-015-016-023>025-035-036-222100-
   NORTH CENTRAL IOWA

CITY           SKY/WX    TMP DP  RH WIND       PRES   REMARKS
ALGONA *       PTSUNNY   70  48  46 NW6G13    29.84S
CLARION *      MOSUNNY   70  52  52 W13G18    29.84S
ESTHERVILLE    MOSUNNY   65  48  54 NW6       29.84F
FORT DODGE *   CLOUDY    72  52  49 W13       29.85S
MASON CITY     MOSUNNY   67  50  54 CALM      29.85F
FOREST CITY *    N/A     72  41  33 W3        29.84S
WEBSTER CITY * MOSUNNY   72  48  43 W18       29.82S
IOWA FALLS *   PTSUNNY   70  53  54 SW12      29.85F
$$

IAZ007>011-017>019-026>030-037>042-050>054-066-222100-
   NORTHEAST IOWA

CITY           SKY/WX    TMP DP  RH WIND       PRES   REMARKS
CEDAR RAPIDS   PTSUNNY   69  57  65 SW17      29.86F
CHARLES CITY * MOSUNNY   68  54  60 SW8       29.85F
CLINTON *      CLOUDY    69  56  62 SW24G31   29.90F
DECORAH *      MOSUNNY   64  52  63 SW8G17    29.84F
DUBUQUE        CLOUDY    65  55  70 S9        29.87F
MONTICELLO *   PTSUNNY   70  54  56 SW14G21   29.86F
OELWEIN *      CLOUDY    66  54  63 SW3       29.85F
WATERLOO       CLOUDY    71  51  49 W10G20    29.84F
$$

IAZ064-065-067-068-078-222100-
   EAST CENTRAL IOWA

CITY           SKY/WX    TMP DP  RH WIND       PRES   REMARKS
DAVENPORT      PTSUNNY   67  54  63 SW22G32   29.92S
IOWA CITY      PTSUNNY   71  55  56 SW21G33   29.91S
MT. PLEASANT * CLOUDY    64  56  74 SW21      29.96S
MUSCATINE *    PTSUNNY   68  55  64 SW20G29   29.93S
QUAD CITIES    PTSUNNY   70  55  59 SW21G30   29.91F
$$

IAZ062-063-075>077-085>089-095>099-222100-
   SOUTHEAST IOWA

CITY           SKY/WX    TMP DP  RH WIND       PRES   REMARKS
BURLINGTON     CLOUDY    63  58  83 S9        29.96F
FAIRFIELD *    CLOUDY    63  55  77 SW18G31   29.93F
FORT MADISON * RAIN      63  59  88 SW5       29.99R
KEOKUK *       LGT RAIN  61  57  88 SW12      29.99R
OSKALOOSA *      N/A     63  56  78 SW21G29   29.92F
OTTUMWA        CLOUDY    62  57  83 SW15      29.92F
WASHINGTON *   CLOUDY    64  55  72 SW24      29.93F
$$

ABBREVIATIONS USED IN REMARKS
   TC - TEMPERATURES IN CELSIUS
  WCI - WIND CHILL INDEX
   HX - HEAT INDEX
  VSB - VISIBILITY
$$





USA.gov is the U.S. government's official web portal to all federal, state and local government web resources and services.